Powrót do katalogu

KOSTKA

AktywnyMilitariaSSO
NORAD 69935·PAYLOAD·🇺🇸 United States

Wystrzelony Jul 7, 2026 z Vandenberg Space Force Base

Loading…

Następne Przeloty (najbliższe 24 godziny)

TLE

ŚwieżeSource: Space-Track

Epoka: Sep 14, 2026, 11:01 UTC

1 69935U 26156BU  26257.45968864  .00002080  00000-0  20693-3 0  9997
2 69935  97.7402 156.7956 0008394 288.7248  71.3060 14.92715754 10312

Śledź KOSTKA w czasie rzeczywistym z AllMySat

Download on the App Store